This is the latest recevied weather packets stored in our database for station/object NC4M. If no packets are shown the sender has not sent any weather packets the latest 10 day(s).
| Time | Temp. | Humidity | Pressure | Rain* | Wind** | Luminosity | Snow |
|---|---|---|---|---|---|---|---|
| 1787949460 | 29.44° C | 42% | 1020.7 hPa | 0 mm | - | 672 W/m² | - |
| 1787949155 | 29.44° C | 45% | 1020.8 hPa | 0 mm | - | 574 W/m² | - |
| 1787948852 | 29.44° C | 43% | 1020.9 hPa | 0 mm | - | 216 W/m² | - |
| 1787948552 | 29.44° C | 44% | 1020.8 hPa | 0 mm | - | 287 W/m² | - |
| 1787948247 | 28.89° C | 49% | 1020.9 hPa | 0 mm | - | 177 W/m² | - |
| 1787947946 | 28.89° C | 42% | 1020.8 hPa | 0 mm | - | 88 W/m² | - |
| 1787947641 | 28.89° C | 43% | 1020.8 hPa | 0 mm | - | 134 W/m² | - |
| 1787947339 | 28.33° C | 46% | 1021.1 hPa | 0 mm | - | 96 W/m² | - |
| 1787947039 | 28.33° C | 44% | 1021 hPa | 0 mm | - | 62 W/m² | - |
| 1787946737 | 28.33° C | 44% | 1021.1 hPa | 0 mm | - | 430 W/m² | - |
| 1787946437 | 28.33° C | 46% | 1021.4 hPa | 0 mm | - | 76 W/m² | - |
| 1787946138 | 28.33° C | 41% | 1021.3 hPa | 0 mm | - | 65 W/m² | - |
| 1787945832 | 28.33° C | 43% | 1021.3 hPa | 0 mm | - | 80 W/m² | - |
| 1787945528 | 28.89° C | 42% | 1021.3 hPa | 0 mm | - | 82 W/m² | - |
| 1787945223 | 28.33° C | 47% | 1021.5 hPa | 0 mm | - | 213 W/m² | - |
| 1787944922 | 27.78° C | 47% | 1021.6 hPa | 0 mm | - | 166 W/m² | - |
| 1787944620 | 27.22° C | 49% | 1021.5 hPa | 0 mm | - | 186 W/m² | - |
| 1787944316 | 27.78° C | 47% | 1021.6 hPa | 0 mm | - | 123 W/m² | - |
| 1787944011 | 28.33° C | 48% | 1021.6 hPa | 0 mm | - | 269 W/m² | - |
| 1787943706 | 28.33° C | 46% | 1021.7 hPa | 0 mm | - | 711 W/m² | - |
| 1787943401 | 27.78° C | 47% | 1021.5 hPa | 0 mm | - | 100 W/m² | - |
| 1787943096 | 28.89° C | 44% | 1021.6 hPa | 0 mm | - | 91 W/m² | - |
| 1787942792 | 28.89° C | 45% | 1021.6 hPa | 0 mm | - | 116 W/m² | - |
| 1787942492 | 28.89° C | 46% | 1021.7 hPa | 0 mm | - | 80 W/m² | - |
| 1787942186 | 28.89° C | 44% | 1021.6 hPa | 0 mm | - | 76 W/m² | - |
* Rain latest hour (hover to see other rain measurements)
** Current wind speed in m/s (hover to see current wind gust speed)